Location: Angwan Shehu
(11.2514°N, 7.4613°E)
Time: 09:51:04
(UTC+00:00)

Daily predictions for brighter satellites

Satellite Brightness Start Highest point End
(mag) Time Altitude Azimuth Time Altitude Azimuth Time Altitude Azimuth
Cosmos 2369 4.3 17:17:58 10° SSW 17:23:32 64° WNW 17:29:07 10° N
Cosmos 2227 Rocket 3.7 17:23:35 10° NE 17:26:27 14° ENE 17:29:18 10° E
Cosmos 2297 Rocket 3.6 17:23:25 10° NNE 17:26:45 16° ENE 17:30:04 10° ESE
Cosmos 2112 Rocket 4.0 17:21:45 10° S 17:26:53 69° ESE 17:32:01 10° NNE
SMAP 3.5 17:28:31 10° S 17:33:07 67° WSW 17:37:44 10° NNW
Skynet4D Del rocket 3.6 17:27:22 10° WNW 17:33:18 71° NNE 17:38:41 10° ESE
Cosmos 1680 Rocket 3.7 17:29:17 10° SSW 17:34:28 78° WNW 17:39:39 10° N
Cosmos 2360 4.2 17:29:30 10° SSW 17:35:11 89° ESE 17:40:53 10° NNE
ARIANE 5 DEB (SYLDA) 4.4 17:32:48 10° WSW 17:36:24 53° S 17:48:30 10° E
Cosmos 1515 Rocket 4.2 17:38:29 10° SSE 17:42:31 34° E 17:46:30 10° NNE
Cosmos 2278 4.4 17:38:09 10° SSW 17:43:40 58° WNW 17:49:13 10° N
Cosmos 1328 Rocket 3.5 17:39:45 10° S 17:44:10 71° E 17:48:35 10° N
Cosmos 1697 Rocket 4.1 17:39:47 10° SW 17:45:03 40° WNW 17:50:19 10° N
Cosmos 1633 Rocket 4.0 17:43:01 10° NNE 17:46:41 26° E 17:50:21 10° SE
Cosmos 158 Rocket 4.0 17:43:43 10° S 17:49:05 71° ESE 17:54:23 10° NNE
Cosmos 1151 Rocket 2.9 17:45:51 10° S 17:50:09 78° E 17:54:28 10° N
COSMO-SKYMED 1 4.5 17:49:40 10° NNW 17:53:30 31° WNW 17:57:20 10° SW
Cosmos 1862 3.8 17:52:43 10° NNE 17:56:22 35° E 18:00:02 10° SSE
Cosmos 1666 Rocket 3.7 17:53:03 10° NNE 17:57:12 46° E 18:01:20 10° SSE
ADEOS Rocket 3.9 17:58:37 19° ENE 18:00:26 22° E 18:04:37 10° SSE
Sich 1 2.9 17:56:31 10° N 18:00:53 82° E 18:05:17 10° S
YAOGAN 1 2.9 18:00:00 10° SSE 18:04:03 42° ENE 18:08:07 10° N
ATLAS 5 CENTAUR R/B 3.5 18:03:38 10° N 18:09:04 26° ENE 18:11:08 23° E
GENESIS II 4.1 18:05:24 10° SSW 18:09:17 88° ESE 18:11:44 22° NNE
CZ-4 R/B 4.3 18:07:01 10° SSE 18:11:08 87° ENE 18:15:14 10° N
GPS 2-17 Rocket1 2.9 18:08:59 10° WNW 18:13:26 84° NNE 18:15:29 32° ESE
Okean-O 4.4 18:09:56 10° SSW 18:13:56 34° W 18:17:57 10° NW
SL-24 R/B 4.2 18:11:06 14° NNE 18:14:47 67° ESE 18:19:41 10° S
CZ-3C R/B 2.1 18:16:13 10° NW 18:19:18 19° N 18:19:18 19° N
CSL-04 Debris 4.1 18:16:11 10° SSE 18:21:39 71° ENE 18:27:05 10° N
Cosmos 1400 Rocket 3.6 18:18:19 10° SSE 18:21:17 35° ESE 18:21:17 35° ESE
ARIANE 5 R/B 2.9 18:21:42 10° SSW 18:22:18 11° S 18:22:18 11° S
CZ-4 R/B 1.9 18:21:38 10° S 18:25:48 62° W 18:29:56 10° NNW
Cosmos 2034 Rocket 3.9 18:23:10 10° N 18:29:32 83° E 18:35:54 10° S
Cosmos 1606 2.8 18:26:19 10° S 18:30:07 72° W 18:31:42 33° N
Centaur D-1AR AC-41 4.1 18:33:16 10° WNW 18:36:19 23° N 18:36:19 23° N
Meteor 2-11 Rocket 4.4 18:31:03 10° N 18:37:12 89° W 18:43:21 10° S
SL-16 R/B 2.0 18:35:03 10° S 18:40:41 74° ESE 18:41:59 53° NE
CSL-04 Rocket 3.8 18:35:16 10° S 18:40:42 72° WSW 18:46:04 10° NNW
Cosmos 2360 Rocket 4.0 18:38:43 10° SSE 18:40:03 15° SE 18:40:03 15° SE
Cosmos 2228 Rocket 3.7 18:39:04 10° SSW 18:43:22 54° W 18:45:53 23° NNW
ATLAS 5 CENTAUR R/B 3.2 18:42:32 10° WNW 18:47:48 49° NNE 18:51:54 37° ENE
Cosmos 2322 Rocket 2.0 18:45:59 10° SSW 18:51:35 79° ESE 18:51:47 77° ENE
SeaSat 1 3.8 18:47:51 10° S 18:52:23 38° WSW 18:56:56 10° NW
Hubble Space Telescope 2.7 18:55:43 10° W 18:58:11 25° NW 18:58:11 25° NW
ISS -1.1 18:56:52 10° SW 18:57:57 19° SW 18:57:57 19° SW
Aurora 2 Rocket 3.9 18:57:57 10° W 19:02:02 39° NNW 19:02:02 39° NNW
Delta 202 4.4 18:56:12 10° WNW 19:06:49 77° NNE 19:07:43 70° ENE
Cosmos 2227 Rocket 3.3 19:05:07 10° NW 19:10:22 41° WSW 19:15:38 10° S
Cosmos 2297 Rocket 3.5 19:05:30 10° NW 19:10:38 37° WSW 19:15:47 10° S
COSMOS 2455 3.6 19:22:53 10° SSW 19:27:39 49° WSW 19:27:39 49° WSW
ATLAS 2AS CENTAUR R/B 3.6 19:25:57 10° SSW 19:30:48 45° S 19:30:48 45° S
Atlas Centaur 2 4.2 19:32:20 10° SSW 19:36:23 26° S 19:36:23 26° S
ATLAS 5 CENTAUR R/B 3.9 19:47:31 10° NW 19:53:06 38° W 19:53:06 38° W
